| time (UTC) | temp C | wind direction | speed KPH | gust KPH | rain 1hr cm | rain 24hr cm | rain mn cm | humidity % | barometer mb |
| 20260903214531 | 22 | 288 | 4.8 | 6.4 | 0.00 | 0.00 | 0.00 | 79 | 1019.9 |
| 20260903213009 | 22 | 145 | 0.0 | 4.8 | 0.00 | 0.00 | 0.00 | 77 | 1020.3 |
| 20260903211513 | 23 | 141 | 3.2 | 11.3 | 0.00 | 0.00 | 0.00 | 76 | 1020.4 |
| 20260903210020 | 23 | 176 | 4.8 | 11.3 | 0.00 | 0.00 | 0.00 | 73 | 1020.1 |
| 20260903204526 | 23 | 181 | 1.6 | 4.8 | 0.00 | 0.00 | 0.00 | 73 | 1019.7 |
| 20260903203035 | 23 | 181 | 1.6 | 3.2 | 0.00 | 0.00 | 0.00 | 72 | 1019.4 |
| 20260903201514 | 23 | 181 | 1.6 | 4.8 | 0.00 | 0.00 | 0.00 | 72 | 1019.2 |
| 20260903200018 | 23 | 181 | 3.2 | 6.4 | 0.00 | 0.00 | 0.00 | 71 | 1019.0 |
| 20260903194537 | 23 | 285 | 0.0 | 4.8 | 0.00 | 0.00 | 0.00 | 73 | 1018.7 |
| 20260903193031 | 23 | 285 | 1.6 | 4.8 | 0.00 | 0.00 | 0.00 | 75 | 1018.4 |
| 20260903191532 | 23 | 260 | 1.6 | 4.8 | 0.00 | 0.00 | 0.00 | 76 | 1018.3 |
| 20260903190014 | 23 | 254 | 4.8 | 6.4 | 0.00 | 0.00 | 0.00 | 74 | 1018.3 |
| 20260903184523 | 24 | 254 | 4.8 | 6.4 | 0.00 | 0.00 | 0.00 | 73 | 1018.4 |
| 20260903183025 | 24 | 221 | 4.8 | 8.0 | 0.00 | 0.00 | 0.00 | 73 | 1018.3 |
| 20260903181532 | 24 | 192 | 3.2 | 9.7 | 0.00 | 0.00 | 0.00 | 73 | 1018.3 |
| 20260903180012 | 25 | 196 | 4.8 | 12.9 | 0.00 | 0.00 | 0.00 | 72 | 1018.3 |
| 20260903174520 | 26 | 215 | 8.0 | 17.7 | 0.00 | 0.00 | 0.00 | 68 | 1018.5 |
| 20260903173025 | 26 | 181 | 8.0 | 12.9 | 0.00 | 0.00 | 0.00 | 67 | 1018.5 |
| 20260903171529 | 25 | 146 | 8.0 | 12.9 | 0.00 | 0.00 | 0.00 | 68 | 1018.5 |
| 20260903170031 | 26 | 151 | 11.3 | 20.9 | 0.00 | 0.00 | 0.00 | 66 | 1018.6 |
| 20260903164517 | 26 | 158 | 14.5 | 22.5 | 0.00 | 0.00 | 0.00 | 65 | 1018.6 |
| 20260903163024 | 25 | 140 | 17.7 | 27.4 | 0.00 | 0.00 | 0.00 | 73 | 1018.4 |
| 20260903161531 | 26 | 133 | 14.5 | 41.8 | 0.00 | 0.00 | 0.00 | 63 | 1018.1 |
| 20260903160040 | 32 | 236 | 6.4 | 12.9 | 0.00 | 0.00 | 0.00 | 43 | 1017.0 |
| 20260903154534 | 33 | 236 | 9.7 | 14.5 | 0.00 | 0.00 | 0.00 | 41 | 1017.1 |
| 20260903153022 | 34 | 232 | 6.4 | 14.5 | 0.00 | 0.00 | 0.00 | 39 | 1017.1 |
| 20260903151527 | 35 | 231 | 9.7 | 16.1 | 0.00 | 0.00 | 0.00 | 37 | 1017.2 |
| 20260903150034 | 35 | 255 | 8.0 | 12.9 | 0.00 | 0.00 | 0.00 | 38 | 1017.3 |
| 20260903144539 | 34 | 242 | 8.0 | 12.9 | 0.00 | 0.00 | 0.00 | 39 | 1017.4 |
| 20260903143017 | 34 | 226 | 8.0 | 14.5 | 0.00 | 0.00 | 0.00 | 39 | 1017.6 |
| 20260903141525 | 34 | 227 | 9.7 | 16.1 | 0.00 | 0.00 | 0.00 | 40 | 1017.8 |
| 20260903140006 | 33 | 198 | 6.4 | 12.9 | 0.00 | 0.00 | 0.00 | 41 | 1017.9 |
| 20260903134505 | 33 | 224 | 6.4 | 14.5 | 0.00 | 0.00 | 0.00 | 40 | 1017.9 |
| 20260903133014 | 32 | 252 | 8.0 | 16.1 | 0.00 | 0.00 | 0.00 | 43 | 1018.1 |
| 20260903131506 | 32 | 245 | 8.0 | 14.5 | 0.00 | 0.00 | 0.00 | 45 | 1018.4 |
| 20260903130004 | 31 | 221 | 9.7 | 14.5 | 0.00 | 0.00 | 0.00 | 45 | 1018.5 |
| 20260903124508 | 31 | 247 | 9.7 | 16.1 | 0.00 | 0.00 | 0.00 | 47 | 1018.7 |
| 20260903123013 | 31 | 248 | 11.3 | 17.7 | 0.00 | 0.00 | 0.00 | 47 | 1018.7 |
| 20260903121516 | 31 | 213 | 8.0 | 14.5 | 0.00 | 0.00 | 0.00 | 46 | 1018.7 |
| 20260903120012 | 30 | 251 | 9.7 | 14.5 | 0.00 | 0.00 | 0.00 | 48 | 1018.8 |
| 20260903114506 | 30 | 197 | 8.0 | 12.9 | 0.00 | 0.00 | 0.00 | 47 | 1018.8 |
| 20260903113009 | 30 | 242 | 8.0 | 16.1 | 0.00 | 0.00 | 0.00 | 45 | 1018.9 |
| 20260903111508 | 30 | 235 | 11.3 | 17.7 | 0.00 | 0.00 | 0.00 | 43 | 1019.0 |
| 20260903110007 | 30 | 242 | 4.8 | 11.3 | 0.00 | 0.00 | 0.00 | 45 | 1019.1 |
| 20260903104506 | 31 | 199 | 3.2 | 8.0 | 0.00 | 0.00 | 0.00 | 46 | 1019.1 |
| 20260903103009 | 30 | 209 | 3.2 | 6.4 | 0.00 | 0.00 | 0.00 | 49 | 1018.9 |
| 20260903101509 | 30 | 222 | 3.2 | 8.0 | 0.00 | 0.00 | 0.00 | 50 | 1019.1 |
| 20260903100028 | 29 | 227 | 3.2 | 6.4 | 0.00 | 0.00 | 0.00 | 50 | 1019.1 |
| 20260903094511 | 30 | 232 | 4.8 | 8.0 | 0.00 | 0.00 | 0.00 | 50 | 1019.1 |
| 20260903093006 | 31 | 209 | 0.0 | 6.4 | 0.00 | 0.00 | 0.00 | 48 | 1019.2 |
| 20260903091510 | 31 | 14 | 4.8 | 12.9 | 0.00 | 0.00 | 0.00 | 38 | 1019.1 |
| 20260903090012 | 30 | 48 | 3.2 | 6.4 | 0.00 | 0.00 | 0.00 | 42 | 1019.0 |
| 20260903084517 | 28 | 34 | 4.8 | 12.9 | 0.00 | 0.00 | 0.00 | 47 | 1019.0 |
| 20260903083015 | 27 | 336 | 0.0 | 3.2 | 0.00 | 0.00 | 0.00 | 53 | 1018.7 |
| 20260903081513 | 26 | 337 | 1.6 | 3.2 | 0.00 | 0.00 | 0.00 | 54 | 1018.6 |
| 20260903080012 | 25 | 337 | 0.0 | 3.2 | 0.00 | 0.00 | 0.00 | 63 | 1018.7 |
| 20260903074519 | 24 | 337 | 0.0 | 3.2 | 0.00 | 0.00 | 0.00 | 66 | 1018.8 |
| 20260903073022 | 23 | 337 | 1.6 | 3.2 | 0.00 | 0.00 | 0.00 | 73 | 1018.7 |
| 20260903071507 | 22 | 337 | 0.0 | 4.8 | 0.00 | 0.00 | 0.00 | 70 | 1018.6 |
| 20260903070015 | 22 | 360 | 4.8 | 6.4 | 0.00 | 0.00 | 0.00 | 69 | 1018.5 |
| 20260903064515 | 21 | 360 | 3.2 | 4.8 | 0.00 | 0.00 | 0.00 | 73 | 1018.5 |
| 20260903063021 | 21 | 360 | 0.0 | 3.2 | 0.00 | 0.00 | 0.00 | 75 | 1018.4 |
| 20260903061518 | 21 | 360 | 0.0 | 6.4 | 0.00 | 0.00 | 0.00 | 77 | 1018.5 |
| 20260903060015 | 20 | 360 | 4.8 | 8.0 | 0.00 | 0.00 | 0.00 | 81 | 1018.3 |
| 20260903054520 | 19 | 333 | 4.8 | 6.4 | 0.00 | 0.00 | 0.00 | 84 | 1018.1 |
| 20260903053021 | 19 | 315 | 0.0 | 1.6 | 0.00 | 0.00 | 0.00 | 84 | 1018.2 |
| 20260903051522 | 19 | 315 | 0.0 | 3.2 | 0.00 | 0.00 | 0.00 | 83 | 1018.3 |
| 20260903050017 | 19 | 315 | 1.6 | 3.2 | 0.00 | 0.00 | 0.00 | 83 | 1018.0 |
| 20260903044519 | 20 | 315 | 1.6 | 3.2 | 0.00 | 0.00 | 0.00 | 82 | 1018.0 |
| 20260903043025 | 20 | 315 | 1.6 | 3.2 | 0.00 | 0.00 | 0.00 | 82 | 1017.9 |
| 20260903041523 | 20 | 315 | 3.2 | 4.8 | 0.00 | 0.00 | 0.00 | 83 | 1017.7 |
| 20260903040013 | 20 | 309 | 3.2 | 4.8 | 0.00 | 0.00 | 0.00 | 83 | 1017.7 |
| 20260903034513 | 20 | 290 | 3.2 | 4.8 | 0.00 | 0.00 | 0.00 | 84 | 1017.7 |
| 20260903033027 | 20 | 289 | 3.2 | 4.8 | 0.00 | 0.00 | 0.00 | 84 | 1017.5 |
| 20260903031538 | 20 | 290 | 4.8 | 4.8 | 0.00 | 0.00 | 0.00 | 82 | 1017.5 |
| 20260903030024 | 20 | 290 | 4.8 | 6.4 | 0.00 | 0.00 | 0.00 | 81 | 1017.5 |
| 20260903024510 | 20 | 290 | 3.2 | 3.2 | 0.00 | 0.00 | 0.00 | 81 | 1017.8 |
| 20260903023016 | 20 | 289 | 3.2 | 3.2 | 0.00 | 0.00 | 0.00 | 81 | 1018.0 |
| 20260903021538 | 20 | 289 | 0.0 | 0.0 | 0.00 | 0.00 | 0.00 | 80 | 1018.0 |
| 20260903020033 | 20 | 290 | 0.0 | 0.0 | 0.00 | 0.00 | 0.00 | 79 | 1018.0 |
| 20260903014510 | 21 | 290 | 0.0 | 0.0 | 0.00 | 0.00 | 0.00 | 78 | 1018.0 |
| 20260903013016 | 21 | 290 | 0.0 | 0.0 | 0.00 | 0.00 | 0.00 | 78 | 1018.2 |
| 20260903011525 | 21 | 289 | 0.0 | 0.0 | 0.00 | 0.00 | 0.00 | 78 | 1018.3 |
| 20260903010031 | 21 | 289 | 0.0 | 0.0 | 0.00 | 0.00 | 0.00 | 77 | 1018.4 |
| 20260903004531 | 21 | 290 | 0.0 | 0.0 | 0.00 | 0.00 | 0.00 | 76 | 1018.5 |
| 20260903003015 | 21 | 290 | 0.0 | 0.0 | 0.00 | 0.00 | 0.00 | 76 | 1018.5 |
| 20260903001517 | 21 | 290 | 0.0 | 1.6 | 0.00 | 0.00 | 0.00 | 76 | 1018.6 |
| 20260903000039 | 22 | 290 | 1.6 | 3.2 | 0.00 | 0.00 | 0.00 | 75 | 1018.6 |
| 20260902234528 | 22 | 290 | 1.6 | 3.2 | 0.00 | 0.00 | 0.00 | 75 | 1018.7 |
| 20260902233043 | 22 | 290 | 1.6 | 3.2 | 0.00 | 0.00 | 0.00 | 75 | 1018.9 |
| 20260902231518 | 22 | 304 | 3.2 | 11.3 | 0.00 | 0.00 | 0.00 | 74 | 1019.0 |
| 20260902230022 | 22 | 309 | 6.4 | 12.9 | 0.00 | 0.00 | 0.00 | 73 | 1019.0 |
| 20260902224528 | 22 | 304 | 6.4 | 11.3 | 0.00 | 0.00 | 0.00 | 73 | 1018.9 |
| 20260902223029 | 22 | 294 | 4.8 | 12.9 | 0.00 | 0.00 | 0.00 | 73 | 1018.8 |
| 20260902221517 | 22 | 314 | 8.0 | 12.9 | 0.00 | 0.00 | 0.00 | 71 | 1018.6 |
| 20260902220035 | 22 | 311 | 6.4 | 8.0 | 0.00 | 0.00 | 0.00 | 71 | 1018.5 |